Year,Month,Day,Hour,Minute,Value (Times are PST for temperature in C)
2014,09,12,00,00,9.40
2014,09,12,00,01,9.40
2014,09,12,00,02,9.40
2014,09,12,00,03,9.30
2014,09,12,00,04,9.30
2014,09,12,00,05,9.30
2014,09,12,00,06,9.30
2014,09,12,00,07,9.30
2014,09,12,00,08,9.30
2014,09,12,00,09,9.30
2014,09,12,00,10,9.30
2014,09,12,00,11,9.30
2014,09,12,00,12,9.30
2014,09,12,00,13,9.30
2014,09,12,00,17,9.20
2014,09,12,00,18,9.20
2014,09,12,00,19,9.20
2014,09,12,00,20,9.20
2014,09,12,00,21,9.20
2014,09,12,00,22,9.20
2014,09,12,00,23,9.20
2014,09,12,00,24,9.20
2014,09,12,00,25,9.20
2014,09,12,00,26,9.20
2014,09,12,00,27,9.20
2014,09,12,00,28,9.20
2014,09,12,00,29,9.20
2014,09,12,00,30,9.20
2014,09,12,00,31,9.20
2014,09,12,00,32,9.20
2014,09,12,00,33,9.20
2014,09,12,00,34,9.10
2014,09,12,00,35,9.10
2014,09,12,00,36,9.10
2014,09,12,00,37,9.10
2014,09,12,00,38,9.10
2014,09,12,00,39,9.00
2014,09,12,00,40,9.00
2014,09,12,00,41,9.10
2014,09,12,00,42,9.10
2014,09,12,00,43,9.00
2014,09,12,00,44,9.10
2014,09,12,00,45,9.10
2014,09,12,00,46,9.10
2014,09,12,00,47,9.10
2014,09,12,00,48,9.20
2014,09,12,00,49,9.20
2014,09,12,00,50,9.20
2014,09,12,00,51,9.20
2014,09,12,00,52,9.20
2014,09,12,00,53,9.20
2014,09,12,00,54,9.20
2014,09,12,00,55,9.10
2014,09,12,00,56,9.10
2014,09,12,00,57,9.10
2014,09,12,00,58,9.10
2014,09,12,00,59,9.10
2014,09,12,01,00,9.00
2014,09,12,01,01,9.00
2014,09,12,01,02,8.90
2014,09,12,01,03,8.90
2014,09,12,01,04,8.90
2014,09,12,01,05,8.90
2014,09,12,01,06,8.90
2014,09,12,01,07,8.90
2014,09,12,01,08,8.90
2014,09,12,01,09,8.90
2014,09,12,01,10,8.90
2014,09,12,01,11,8.90
2014,09,12,01,12,8.90
2014,09,12,01,13,8.90
2014,09,12,01,14,8.90
2014,09,12,01,15,8.80
2014,09,12,01,16,8.80
2014,09,12,01,17,8.80
2014,09,12,01,18,8.80
2014,09,12,01,19,8.70
2014,09,12,01,20,8.70
2014,09,12,01,21,8.70
2014,09,12,01,22,8.60
2014,09,12,01,23,8.60
2014,09,12,01,24,8.50
2014,09,12,01,25,8.50
2014,09,12,01,26,8.50
2014,09,12,01,27,8.50
2014,09,12,01,28,8.60
2014,09,12,01,29,8.60
2014,09,12,01,30,8.60
2014,09,12,01,31,8.70
2014,09,12,01,32,8.70
2014,09,12,01,33,8.70
2014,09,12,01,34,8.60
2014,09,12,01,35,8.60
2014,09,12,01,36,8.60
2014,09,12,01,37,8.60
2014,09,12,01,38,8.60
2014,09,12,01,39,8.60
2014,09,12,01,40,8.60
2014,09,12,01,41,8.60
2014,09,12,01,42,8.60
2014,09,12,01,43,8.60
2014,09,12,01,44,8.60
2014,09,12,01,45,8.50
2014,09,12,01,46,8.50
2014,09,12,01,47,8.50
2014,09,12,01,48,8.50
2014,09,12,01,49,8.50
2014,09,12,01,50,8.50
2014,09,12,01,51,8.50
2014,09,12,01,52,8.50
2014,09,12,01,53,8.40
2014,09,12,01,54,8.40
2014,09,12,01,55,8.40
2014,09,12,01,56,8.40
2014,09,12,01,57,8.40
2014,09,12,01,58,8.40
2014,09,12,01,59,8.30
2014,09,12,02,00,8.30
2014,09,12,02,01,8.40
2014,09,12,02,02,8.40
2014,09,12,02,03,8.40
2014,09,12,02,04,8.40
2014,09,12,02,05,8.40
2014,09,12,02,06,8.40
2014,09,12,02,07,8.40
2014,09,12,02,08,8.40
2014,09,12,02,09,8.40
2014,09,12,02,10,8.40
2014,09,12,02,11,8.50
2014,09,12,02,12,8.50
2014,09,12,02,13,8.50
2014,09,12,02,14,8.40
2014,09,12,02,15,8.40
2014,09,12,02,16,8.40
2014,09,12,02,17,8.40
2014,09,12,02,18,8.40
2014,09,12,02,19,8.40
2014,09,12,02,20,8.40
2014,09,12,02,21,8.40
2014,09,12,02,22,8.30
2014,09,12,02,23,8.30
2014,09,12,02,24,8.30
2014,09,12,02,25,8.30
2014,09,12,02,26,8.30
2014,09,12,02,27,8.30
2014,09,12,02,28,8.30
2014,09,12,02,29,8.30
2014,09,12,02,30,8.30
2014,09,12,02,31,8.30
2014,09,12,02,32,8.20
2014,09,12,02,33,8.20
2014,09,12,02,34,8.20
2014,09,12,02,35,8.20
2014,09,12,02,36,8.20
2014,09,12,02,37,8.20
2014,09,12,02,38,8.20
2014,09,12,02,39,8.20
2014,09,12,02,40,8.20
2014,09,12,02,41,8.20
2014,09,12,02,42,8.20
2014,09,12,02,43,8.20
2014,09,12,02,44,8.30
2014,09,12,02,45,8.30
2014,09,12,02,46,8.30
2014,09,12,02,47,8.40
2014,09,12,02,48,8.40
2014,09,12,02,49,8.40
2014,09,12,02,50,8.40
2014,09,12,02,51,8.40
2014,09,12,02,52,8.40
2014,09,12,02,53,8.40
2014,09,12,02,54,8.40
2014,09,12,02,55,8.30
2014,09,12,02,56,8.30
2014,09,12,02,57,8.20
2014,09,12,02,58,8.20
2014,09,12,02,59,8.20
2014,09,12,03,00,8.20
2014,09,12,03,01,8.20
2014,09,12,03,02,8.10
2014,09,12,03,03,8.10
2014,09,12,03,04,8.00
2014,09,12,03,05,8.00
2014,09,12,03,06,7.90
2014,09,12,03,07,7.90
2014,09,12,03,08,7.90
2014,09,12,03,09,7.80
2014,09,12,03,10,7.80
2014,09,12,03,11,7.80
2014,09,12,03,12,7.80
2014,09,12,03,13,7.80
2014,09,12,03,14,7.80
2014,09,12,03,15,7.80
2014,09,12,03,16,7.70
2014,09,12,03,17,7.80
2014,09,12,03,18,7.80
2014,09,12,03,19,7.80
2014,09,12,03,20,7.80
2014,09,12,03,21,7.80
2014,09,12,03,22,7.80
2014,09,12,03,23,7.80
2014,09,12,03,24,7.80
2014,09,12,03,25,7.80
2014,09,12,03,26,7.80
2014,09,12,03,27,7.80
2014,09,12,03,28,7.80
2014,09,12,03,29,7.80
2014,09,12,03,30,7.90
2014,09,12,03,31,7.90
2014,09,12,03,32,8.00
2014,09,12,03,33,8.00
2014,09,12,03,34,8.00
2014,09,12,03,35,8.00
2014,09,12,03,36,8.00
2014,09,12,03,37,7.90
2014,09,12,03,38,7.90
2014,09,12,03,39,7.80
2014,09,12,03,40,7.80
2014,09,12,03,41,7.70
2014,09,12,03,42,7.70
2014,09,12,03,43,7.70
2014,09,12,03,44,7.60
2014,09,12,03,45,7.60
2014,09,12,03,46,7.60
2014,09,12,03,47,7.60
2014,09,12,03,48,7.60
2014,09,12,03,49,7.60
2014,09,12,03,50,7.60
2014,09,12,03,51,7.70
2014,09,12,03,52,7.70
2014,09,12,03,53,7.70
2014,09,12,03,54,7.60
2014,09,12,03,55,7.60
2014,09,12,03,56,7.60
2014,09,12,03,57,7.60
2014,09,12,03,58,7.50
2014,09,12,03,59,7.50
2014,09,12,04,00,7.40
2014,09,12,04,01,7.40
2014,09,12,04,02,7.40
2014,09,12,04,03,7.40
2014,09,12,04,04,7.40
2014,09,12,04,05,7.40
2014,09,12,04,06,7.40
2014,09,12,04,07,7.40
2014,09,12,04,08,7.40
2014,09,12,04,09,7.40
2014,09,12,04,10,7.40
2014,09,12,04,11,7.50
2014,09,12,04,12,7.40
2014,09,12,04,13,7.40
2014,09,12,04,14,7.40
2014,09,12,04,15,7.40
2014,09,12,04,16,7.40
2014,09,12,04,17,7.40
2014,09,12,04,18,7.30
2014,09,12,04,19,7.30
2014,09,12,04,20,7.30
2014,09,12,04,21,7.30
2014,09,12,04,22,7.30
2014,09,12,04,23,7.30
2014,09,12,04,24,7.30
2014,09,12,04,25,7.30
2014,09,12,04,26,7.30
2014,09,12,04,27,7.30
2014,09,12,04,28,7.30
2014,09,12,04,29,7.30
2014,09,12,04,30,7.30
2014,09,12,04,31,7.30
2014,09,12,04,32,7.30
2014,09,12,04,33,7.30
2014,09,12,04,34,7.40
2014,09,12,04,35,7.50
2014,09,12,04,36,7.50
2014,09,12,04,37,7.60
2014,09,12,04,38,7.50
2014,09,12,04,39,7.50
2014,09,12,04,40,7.50
2014,09,12,04,41,7.50
2014,09,12,04,42,7.50
2014,09,12,04,43,7.50
2014,09,12,04,44,7.50
2014,09,12,04,45,7.40
2014,09,12,04,46,7.40
2014,09,12,04,47,7.40
2014,09,12,04,48,7.40
2014,09,12,04,49,7.50
2014,09,12,04,50,7.50
2014,09,12,04,51,7.50
2014,09,12,04,52,7.50
2014,09,12,04,53,7.50
2014,09,12,04,54,7.50
2014,09,12,04,55,7.50
2014,09,12,04,56,7.50
2014,09,12,04,57,7.50
2014,09,12,04,58,7.50
2014,09,12,04,59,7.50
2014,09,12,05,00,7.50
2014,09,12,05,01,7.50
2014,09,12,05,02,7.50
2014,09,12,05,03,7.50
2014,09,12,05,04,7.50
2014,09,12,05,05,7.50
2014,09,12,05,06,7.50
2014,09,12,05,07,7.40
2014,09,12,05,08,7.40
2014,09,12,05,09,7.40
2014,09,12,05,10,7.40
2014,09,12,05,11,7.40
2014,09,12,05,12,7.30
2014,09,12,05,13,7.30
2014,09,12,05,14,7.30
2014,09,12,05,15,7.30
2014,09,12,05,16,7.30
2014,09,12,05,17,7.20
2014,09,12,05,18,7.20
2014,09,12,05,19,7.10
2014,09,12,05,20,7.00
2014,09,12,05,21,7.00
2014,09,12,05,22,6.90
2014,09,12,05,23,6.90
2014,09,12,05,24,6.90
2014,09,12,05,25,6.90
2014,09,12,05,26,6.90
2014,09,12,05,27,6.80
2014,09,12,05,28,6.80
2014,09,12,05,29,6.80
2014,09,12,05,30,6.80
2014,09,12,05,31,6.80
2014,09,12,05,32,6.80
2014,09,12,05,33,6.80
2014,09,12,05,34,6.80
2014,09,12,05,35,6.80
2014,09,12,05,36,6.80
2014,09,12,05,37,6.80
2014,09,12,05,38,6.80
2014,09,12,05,39,6.80
2014,09,12,05,40,6.80
2014,09,12,05,41,6.80
2014,09,12,05,42,6.80
2014,09,12,05,43,6.80
2014,09,12,05,44,6.80
2014,09,12,05,45,6.80
2014,09,12,05,46,6.80
2014,09,12,05,47,6.80
2014,09,12,05,48,6.80
2014,09,12,05,49,6.80
2014,09,12,05,50,6.80
2014,09,12,05,51,6.80
2014,09,12,05,52,6.80
2014,09,12,05,53,6.90
2014,09,12,05,54,6.90
2014,09,12,05,55,6.90
2014,09,12,05,56,6.90
2014,09,12,05,57,6.90
2014,09,12,05,58,6.90
2014,09,12,05,59,6.90
2014,09,12,06,00,6.90
2014,09,12,06,01,6.80
2014,09,12,06,02,6.80
2014,09,12,06,03,6.80
2014,09,12,06,04,6.80
2014,09,12,06,05,6.70
2014,09,12,06,06,6.70
2014,09,12,06,07,6.70
2014,09,12,06,08,6.70
2014,09,12,06,09,6.70
2014,09,12,06,10,6.70
2014,09,12,06,11,6.70
2014,09,12,06,12,6.70
2014,09,12,06,13,6.70
2014,09,12,06,14,6.70
2014,09,12,06,15,6.70
2014,09,12,06,16,6.70
2014,09,12,06,17,6.70
2014,09,12,06,18,6.70
2014,09,12,06,19,6.70
2014,09,12,06,20,6.70
2014,09,12,06,21,6.70
2014,09,12,06,22,6.70
2014,09,12,06,23,6.70
2014,09,12,06,24,6.70
2014,09,12,06,25,6.60
2014,09,12,06,26,6.60
2014,09,12,06,27,6.50
2014,09,12,06,28,6.40
2014,09,12,06,29,6.40
2014,09,12,06,30,6.40
2014,09,12,06,31,6.30
2014,09,12,06,32,6.30
2014,09,12,06,33,6.30
2014,09,12,06,34,6.20
2014,09,12,06,35,6.20
2014,09,12,06,36,6.20
2014,09,12,06,37,6.20
2014,09,12,06,38,6.10
2014,09,12,06,39,6.10
2014,09,12,06,40,6.10
2014,09,12,06,41,6.10
2014,09,12,06,42,6.10
2014,09,12,06,43,6.10
2014,09,12,06,44,6.10
2014,09,12,06,45,6.00
2014,09,12,06,46,6.00
2014,09,12,06,47,6.00
2014,09,12,06,48,6.00
2014,09,12,06,49,6.10
2014,09,12,06,50,6.10
2014,09,12,06,51,6.20
2014,09,12,06,52,6.20
2014,09,12,06,53,6.20
2014,09,12,06,54,6.20
2014,09,12,06,55,6.20
2014,09,12,06,56,6.20
2014,09,12,06,57,6.20
2014,09,12,06,58,6.20
2014,09,12,06,59,6.20
2014,09,12,07,00,6.20
2014,09,12,07,01,6.20
2014,09,12,07,02,6.20
2014,09,12,07,03,6.10
2014,09,12,07,04,6.10
2014,09,12,07,05,6.10
2014,09,12,07,06,6.00
2014,09,12,07,07,6.00
2014,09,12,07,08,6.00
2014,09,12,07,09,5.90
2014,09,12,07,10,5.90
2014,09,12,07,11,5.90
2014,09,12,07,12,5.90
2014,09,12,07,13,5.90
2014,09,12,07,14,5.90
2014,09,12,07,15,5.90
2014,09,12,07,16,5.90
2014,09,12,07,17,5.90
2014,09,12,07,18,6.00
2014,09,12,07,19,6.00
2014,09,12,07,20,6.00
2014,09,12,07,21,6.00
2014,09,12,07,22,6.00
2014,09,12,07,23,6.00
2014,09,12,07,24,6.00
2014,09,12,07,25,6.00
2014,09,12,07,26,6.00
2014,09,12,07,27,6.00
2014,09,12,07,28,6.00
2014,09,12,07,29,6.00
2014,09,12,07,30,6.00
2014,09,12,07,31,6.00
2014,09,12,07,32,6.10
2014,09,12,07,33,6.10
2014,09,12,07,34,6.10
2014,09,12,07,35,6.10
2014,09,12,07,36,6.20
2014,09,12,07,37,6.20
2014,09,12,07,38,6.20
2014,09,12,07,39,6.20
2014,09,12,07,40,6.20
2014,09,12,07,41,6.30
2014,09,12,07,42,6.30
2014,09,12,07,43,6.30
2014,09,12,07,44,6.30
2014,09,12,07,45,6.30
2014,09,12,07,46,6.20
2014,09,12,07,47,6.20
2014,09,12,07,48,6.30
2014,09,12,07,49,6.30
2014,09,12,07,50,6.30
2014,09,12,07,51,6.30
2014,09,12,07,52,6.30
2014,09,12,07,53,6.30
2014,09,12,07,54,6.30
2014,09,12,07,55,6.30
2014,09,12,07,56,6.40
2014,09,12,07,57,6.40
2014,09,12,07,58,6.50
2014,09,12,07,59,6.60
2014,09,12,08,00,6.60
2014,09,12,08,01,6.70
2014,09,12,08,02,6.70
2014,09,12,08,03,6.70
2014,09,12,08,04,6.80
2014,09,12,08,05,6.80
2014,09,12,08,06,6.80
2014,09,12,08,07,6.90
2014,09,12,08,08,6.90
2014,09,12,08,09,6.90
2014,09,12,08,10,7.00
2014,09,12,08,11,7.00
2014,09,12,08,12,7.10
2014,09,12,08,13,7.10
2014,09,12,08,14,7.20
2014,09,12,08,15,7.20
2014,09,12,08,16,7.30
2014,09,12,08,17,7.30
2014,09,12,08,18,7.40
2014,09,12,08,19,7.50
2014,09,12,08,20,7.50
2014,09,12,08,21,7.60
2014,09,12,08,22,7.60
2014,09,12,08,23,7.70
2014,09,12,08,24,7.80
2014,09,12,08,25,7.80
2014,09,12,08,26,7.80
2014,09,12,08,27,7.90
2014,09,12,08,28,7.90
2014,09,12,08,29,8.00
2014,09,12,08,30,8.10
2014,09,12,08,31,8.20
2014,09,12,08,32,8.20
2014,09,12,08,33,8.30
2014,09,12,08,34,8.40
2014,09,12,08,35,8.50
2014,09,12,08,36,8.50
2014,09,12,08,37,8.60
2014,09,12,08,38,8.70
2014,09,12,08,39,8.70
2014,09,12,08,40,8.80
2014,09,12,08,41,8.80
2014,09,12,08,42,8.90
2014,09,12,08,43,8.90
2014,09,12,08,44,8.90
2014,09,12,08,45,9.00
2014,09,12,08,46,9.10
2014,09,12,08,47,9.20
2014,09,12,08,48,9.30
2014,09,12,08,49,9.50
2014,09,12,08,50,9.60
2014,09,12,08,51,9.70
2014,09,12,08,52,9.80
2014,09,12,08,53,9.90
2014,09,12,08,54,10.00
2014,09,12,08,55,10.20
2014,09,12,08,56,10.30
2014,09,12,08,57,10.40
2014,09,12,08,58,10.50
2014,09,12,08,59,10.60
2014,09,12,09,00,10.70
2014,09,12,09,01,10.80
2014,09,12,09,02,10.90
2014,09,12,09,03,11.00
2014,09,12,09,04,11.10
2014,09,12,09,05,11.20
2014,09,12,09,06,11.30
2014,09,12,09,07,11.30
2014,09,12,09,08,11.40
2014,09,12,09,09,11.50
2014,09,12,09,10,11.60
2014,09,12,09,11,11.60
2014,09,12,09,12,11.70
2014,09,12,09,13,11.70
2014,09,12,09,14,11.80
2014,09,12,09,15,11.80
2014,09,12,09,16,11.80
2014,09,12,09,17,11.90
2014,09,12,09,18,11.90
2014,09,12,09,19,12.00
2014,09,12,09,20,12.10
2014,09,12,09,21,12.20
2014,09,12,09,22,12.20
2014,09,12,09,23,12.40
2014,09,12,09,24,12.40
2014,09,12,09,25,12.50
2014,09,12,09,26,12.60
2014,09,12,09,27,12.60
2014,09,12,09,28,12.70
2014,09,12,09,29,12.80
2014,09,12,09,30,12.80
2014,09,12,09,31,12.90
2014,09,12,09,32,13.00
2014,09,12,09,33,13.10
2014,09,12,09,34,13.30
2014,09,12,09,35,13.40
2014,09,12,09,36,13.50
2014,09,12,09,37,13.60
2014,09,12,09,38,13.70
2014,09,12,09,39,13.80
2014,09,12,09,40,13.80
2014,09,12,09,41,13.90
2014,09,12,09,42,14.00
2014,09,12,09,43,14.00
2014,09,12,09,44,14.10
2014,09,12,09,45,14.10
2014,09,12,09,46,14.10
2014,09,12,09,47,14.20
2014,09,12,09,48,14.20
2014,09,12,09,49,14.30
2014,09,12,09,50,14.30
2014,09,12,09,51,14.30
2014,09,12,09,52,14.40
2014,09,12,09,53,14.40
2014,09,12,09,54,14.50
2014,09,12,09,55,14.50
2014,09,12,09,56,14.60
2014,09,12,09,57,14.70
2014,09,12,09,58,14.80
2014,09,12,09,59,14.90
2014,09,12,10,00,15.10
2014,09,12,10,01,15.20
2014,09,12,10,02,15.30
2014,09,12,10,03,15.40
2014,09,12,10,04,15.50
2014,09,12,10,05,15.60
2014,09,12,10,06,15.70
2014,09,12,10,07,15.80
2014,09,12,10,08,15.80
2014,09,12,10,09,15.90
2014,09,12,10,10,16.00
2014,09,12,10,11,16.00
2014,09,12,10,12,16.10
2014,09,12,10,13,16.10
2014,09,12,10,14,16.20
2014,09,12,10,15,16.30
2014,09,12,10,16,16.30
2014,09,12,10,17,16.40
2014,09,12,10,18,16.50
2014,09,12,10,19,16.50
2014,09,12,10,20,16.60
2014,09,12,10,21,16.60
2014,09,12,10,22,16.70
2014,09,12,10,23,16.70
2014,09,12,10,24,16.70
2014,09,12,10,25,16.70
2014,09,12,10,26,16.70
2014,09,12,10,27,16.80
2014,09,12,10,28,16.80
2014,09,12,10,29,16.80
2014,09,12,10,30,16.80
2014,09,12,10,31,16.80
2014,09,12,10,32,16.70
2014,09,12,10,33,16.60
2014,09,12,10,34,16.60
2014,09,12,10,35,16.50
2014,09,12,10,36,16.30
2014,09,12,10,37,16.20
2014,09,12,10,38,16.10
2014,09,12,10,39,16.00
2014,09,12,10,40,15.90
2014,09,12,10,41,15.90
2014,09,12,10,42,15.90
2014,09,12,10,43,15.90
2014,09,12,10,44,15.90
2014,09,12,10,45,15.90
2014,09,12,10,46,15.80
2014,09,12,10,47,15.80
2014,09,12,10,48,15.80
2014,09,12,10,49,15.80
2014,09,12,10,50,15.90
2014,09,12,10,51,15.90
2014,09,12,10,52,15.90
2014,09,12,10,53,15.90
2014,09,12,10,54,16.00
2014,09,12,10,55,16.00
2014,09,12,10,56,16.10
2014,09,12,10,57,16.10
2014,09,12,10,58,16.20
2014,09,12,10,59,16.20
2014,09,12,11,00,16.20
2014,09,12,11,01,16.30
2014,09,12,11,02,16.40
2014,09,12,11,03,16.50
2014,09,12,11,04,16.50
2014,09,12,11,05,16.60
2014,09,12,11,06,16.70
2014,09,12,11,07,16.80
2014,09,12,11,08,16.80
2014,09,12,11,09,16.90
2014,09,12,11,10,17.00
2014,09,12,11,11,17.10
2014,09,12,11,12,17.20
2014,09,12,11,13,17.30
2014,09,12,11,14,17.30
2014,09,12,11,15,17.30
2014,09,12,11,16,17.40
2014,09,12,11,17,17.50
2014,09,12,11,18,17.50
2014,09,12,11,19,17.60
2014,09,12,11,20,17.60
2014,09,12,11,21,17.70
2014,09,12,11,22,17.70
2014,09,12,11,23,17.70
2014,09,12,11,24,17.80
2014,09,12,11,25,17.80
2014,09,12,11,26,17.80
2014,09,12,11,27,17.90
2014,09,12,11,28,17.90
2014,09,12,11,29,18.00
2014,09,12,11,30,18.00
2014,09,12,11,31,18.10
2014,09,12,11,32,18.20
2014,09,12,11,33,18.30
2014,09,12,11,34,18.40
2014,09,12,11,35,18.50
2014,09,12,11,36,18.50
2014,09,12,11,37,18.60
2014,09,12,11,38,18.70
2014,09,12,11,39,18.70
2014,09,12,11,40,18.80
2014,09,12,11,41,18.90
2014,09,12,11,42,19.00
2014,09,12,11,43,19.10
2014,09,12,11,44,19.10
2014,09,12,11,45,19.20
2014,09,12,11,46,19.20
2014,09,12,11,47,19.30
2014,09,12,11,48,19.30
2014,09,12,11,49,19.30
2014,09,12,11,50,19.30
2014,09,12,11,51,19.20
2014,09,12,11,52,19.20
2014,09,12,11,53,19.20
2014,09,12,11,54,19.20
2014,09,12,11,55,19.20
2014,09,12,11,56,19.20
2014,09,12,11,57,19.10
2014,09,12,11,58,19.10
2014,09,12,11,59,19.10
2014,09,12,12,00,19.00
2014,09,12,12,01,19.00
2014,09,12,12,02,19.00
2014,09,12,12,03,19.00
2014,09,12,12,04,18.90
2014,09,12,12,05,18.90
2014,09,12,12,06,18.80
2014,09,12,12,07,18.80
2014,09,12,12,08,18.70
2014,09,12,12,09,18.60
2014,09,12,12,10,18.50
2014,09,12,12,11,18.40
2014,09,12,12,12,18.30
2014,09,12,12,13,18.30
2014,09,12,12,14,18.20
2014,09,12,12,15,18.30
2014,09,12,12,16,18.40
2014,09,12,12,17,18.50
2014,09,12,12,18,18.60
2014,09,12,12,19,18.70
2014,09,12,12,20,18.80
2014,09,12,12,21,18.80
2014,09,12,12,22,18.90
2014,09,12,12,23,18.90
2014,09,12,12,24,19.00
2014,09,12,12,25,19.10
2014,09,12,12,26,19.20
2014,09,12,12,27,19.30
2014,09,12,12,28,19.50
2014,09,12,12,29,19.60
2014,09,12,12,30,19.70
2014,09,12,12,31,19.80
2014,09,12,12,32,19.90
2014,09,12,12,33,20.00
2014,09,12,12,34,20.10
2014,09,12,12,35,20.20
2014,09,12,12,36,20.30
2014,09,12,12,37,20.40
2014,09,12,12,38,20.40
2014,09,12,12,39,20.40
2014,09,12,12,40,20.40
2014,09,12,12,41,20.40
2014,09,12,12,42,20.30
2014,09,12,12,43,20.30
2014,09,12,12,44,20.20
2014,09,12,12,45,20.10
2014,09,12,12,46,20.10
2014,09,12,12,47,20.00
2014,09,12,12,48,19.90
2014,09,12,12,49,19.80
2014,09,12,12,50,19.80
2014,09,12,12,51,19.70
2014,09,12,12,52,19.60
2014,09,12,12,53,19.50
2014,09,12,12,54,19.40
2014,09,12,12,55,19.30
2014,09,12,12,56,19.20
2014,09,12,12,57,19.00
2014,09,12,12,58,18.90
2014,09,12,12,59,18.90
2014,09,12,13,00,18.90
2014,09,12,13,01,18.90
2014,09,12,13,02,18.90
2014,09,12,13,03,18.90
2014,09,12,13,04,18.80
2014,09,12,13,05,18.70
2014,09,12,13,06,18.50
2014,09,12,13,07,18.50
2014,09,12,13,08,18.40
2014,09,12,13,09,18.30
2014,09,12,13,10,18.30
2014,09,12,13,11,18.30
2014,09,12,13,12,18.40
2014,09,12,13,13,18.40
2014,09,12,13,14,18.50
2014,09,12,13,15,18.50
2014,09,12,13,16,18.50
2014,09,12,13,17,18.60
2014,09,12,13,18,18.50
2014,09,12,13,19,18.50
2014,09,12,13,20,18.60
2014,09,12,13,21,18.60
2014,09,12,13,22,18.70
2014,09,12,13,23,18.70
2014,09,12,13,24,18.80
2014,09,12,13,25,18.80
2014,09,12,13,26,18.90
2014,09,12,13,27,18.90
2014,09,12,13,28,18.90
2014,09,12,13,29,18.90
2014,09,12,13,30,18.90
2014,09,12,13,31,19.00
2014,09,12,13,32,19.00
2014,09,12,13,33,19.10
2014,09,12,13,34,19.20
2014,09,12,13,35,19.20
2014,09,12,13,36,19.30
2014,09,12,13,37,19.40
2014,09,12,13,38,19.50
2014,09,12,13,39,19.50
2014,09,12,13,40,19.60
2014,09,12,13,41,19.60
2014,09,12,13,42,19.60
2014,09,12,13,43,19.60
2014,09,12,13,44,19.60
2014,09,12,13,45,19.60
2014,09,12,13,46,19.70
2014,09,12,13,47,19.70
2014,09,12,13,48,19.70
2014,09,12,13,49,19.70
2014,09,12,13,50,19.80
2014,09,12,13,51,19.80
2014,09,12,13,52,19.80
2014,09,12,13,53,19.90
2014,09,12,13,54,19.80
2014,09,12,13,55,19.80
2014,09,12,13,56,19.70
2014,09,12,13,57,19.70
2014,09,12,13,58,19.60
2014,09,12,13,59,19.60
2014,09,12,14,00,19.60
2014,09,12,14,01,19.60
2014,09,12,14,02,19.60
2014,09,12,14,03,19.60
2014,09,12,14,04,19.60
2014,09,12,14,05,19.60
2014,09,12,14,06,19.70
2014,09,12,14,07,19.70
2014,09,12,14,08,19.70
2014,09,12,14,09,19.70
2014,09,12,14,10,19.70
2014,09,12,14,11,19.80
2014,09,12,14,12,19.70
2014,09,12,14,13,19.70
2014,09,12,14,14,19.70
2014,09,12,14,15,19.60
2014,09,12,14,16,19.50
2014,09,12,14,17,19.50
2014,09,12,14,18,19.50
2014,09,12,14,19,19.60
2014,09,12,14,20,19.50
2014,09,12,14,21,19.50
2014,09,12,14,22,19.50
2014,09,12,14,23,19.40
2014,09,12,14,24,19.40
2014,09,12,14,25,19.30
2014,09,12,14,26,19.30
2014,09,12,14,27,19.20
2014,09,12,14,28,19.20
2014,09,12,14,29,19.20
2014,09,12,14,30,19.20
2014,09,12,14,31,19.30
2014,09,12,14,32,19.40
2014,09,12,14,33,19.50
2014,09,12,14,34,19.60
2014,09,12,14,35,19.60
2014,09,12,14,36,19.60
2014,09,12,14,37,19.60
2014,09,12,14,38,19.70
2014,09,12,14,39,19.60
2014,09,12,14,40,19.60
2014,09,12,14,41,19.60
2014,09,12,14,42,19.60
2014,09,12,14,43,19.60
2014,09,12,14,44,19.60
2014,09,12,14,45,19.70
2014,09,12,14,46,19.80
2014,09,12,14,47,19.80
2014,09,12,14,48,19.90
2014,09,12,14,49,19.90
2014,09,12,14,50,19.90
2014,09,12,14,51,20.00
2014,09,12,14,52,20.00
2014,09,12,14,53,20.00
2014,09,12,14,54,19.90
2014,09,12,14,55,19.90
2014,09,12,14,56,19.80
2014,09,12,14,57,19.90
2014,09,12,14,58,20.00
2014,09,12,14,59,20.10
2014,09,12,15,00,20.30
2014,09,12,15,01,20.40
2014,09,12,15,02,20.40
2014,09,12,15,03,20.50
2014,09,12,15,04,20.50
2014,09,12,15,05,20.50
2014,09,12,15,06,20.40
2014,09,12,15,07,20.40
2014,09,12,15,08,20.40
2014,09,12,15,09,20.40
2014,09,12,15,10,20.30
2014,09,12,15,11,20.40
2014,09,12,15,12,20.50
2014,09,12,15,13,20.60
2014,09,12,15,14,20.70
2014,09,12,15,15,20.80
2014,09,12,15,16,20.80
2014,09,12,15,17,20.80
2014,09,12,15,18,20.80
2014,09,12,15,19,20.90
2014,09,12,15,20,20.90
2014,09,12,15,21,21.00
2014,09,12,15,22,21.10
2014,09,12,15,23,21.20
2014,09,12,15,24,21.40
2014,09,12,15,25,21.60
2014,09,12,15,26,21.70
2014,09,12,15,27,21.90
2014,09,12,15,28,22.00
2014,09,12,15,29,22.20
2014,09,12,15,30,22.30
2014,09,12,15,31,22.40
2014,09,12,15,32,22.50
2014,09,12,15,33,22.40
2014,09,12,15,34,22.40
2014,09,12,15,35,22.30
2014,09,12,15,36,22.30
2014,09,12,15,37,22.30
2014,09,12,15,38,22.40
2014,09,12,15,39,22.40
2014,09,12,15,40,22.50
2014,09,12,15,41,22.50
2014,09,12,15,42,22.50
2014,09,12,15,43,22.40
2014,09,12,15,44,22.40
2014,09,12,15,45,22.30
2014,09,12,15,46,22.10
2014,09,12,15,47,22.00
2014,09,12,15,48,21.90
2014,09,12,15,49,21.90
2014,09,12,15,50,22.00
2014,09,12,15,51,22.00
2014,09,12,15,52,22.00
2014,09,12,15,53,22.00
2014,09,12,15,54,21.90
2014,09,12,15,55,21.80
2014,09,12,15,56,21.80
2014,09,12,15,57,21.80
2014,09,12,15,58,21.80
2014,09,12,15,59,21.90
2014,09,12,16,00,21.90
2014,09,12,16,01,22.00
2014,09,12,16,02,22.00
2014,09,12,16,03,21.90
2014,09,12,16,04,22.00
2014,09,12,16,05,22.00
2014,09,12,16,06,22.10
2014,09,12,16,07,22.10
2014,09,12,16,08,22.20
2014,09,12,16,09,22.30
2014,09,12,16,10,22.40
2014,09,12,16,11,22.50
2014,09,12,16,12,22.60
2014,09,12,16,13,22.50
2014,09,12,16,14,22.50
2014,09,12,16,15,22.50
2014,09,12,16,16,22.50
2014,09,12,16,17,22.60
2014,09,12,16,18,22.70
2014,09,12,16,19,22.70
2014,09,12,16,20,22.80
2014,09,12,16,21,22.80
2014,09,12,16,22,22.90
2014,09,12,16,23,22.90
2014,09,12,16,24,23.00
2014,09,12,16,25,23.00
2014,09,12,16,26,23.10
2014,09,12,16,27,23.10
2014,09,12,16,28,23.10
2014,09,12,16,29,23.10
2014,09,12,16,30,23.10
2014,09,12,16,31,23.10
2014,09,12,16,32,23.00
2014,09,12,16,33,23.00
2014,09,12,16,34,23.00
2014,09,12,16,35,23.00
2014,09,12,16,36,23.00
2014,09,12,16,37,22.90
2014,09,12,16,38,22.90
2014,09,12,16,39,22.90
2014,09,12,16,40,22.80
2014,09,12,16,41,22.80
2014,09,12,16,42,22.80
2014,09,12,16,43,22.70
2014,09,12,16,44,22.80
2014,09,12,16,45,22.80
2014,09,12,16,46,22.70
2014,09,12,16,47,22.70
2014,09,12,16,48,22.60
2014,09,12,16,49,22.40
2014,09,12,16,50,22.30
2014,09,12,16,51,22.20
2014,09,12,16,52,22.10
2014,09,12,16,53,22.10
2014,09,12,16,54,22.20
2014,09,12,16,55,22.20
2014,09,12,16,56,22.30
2014,09,12,16,57,22.30
2014,09,12,16,58,22.30
2014,09,12,16,59,22.30
2014,09,12,17,00,22.30
2014,09,12,17,01,22.20
2014,09,12,17,02,22.10
2014,09,12,17,03,21.90
2014,09,12,17,04,21.90
2014,09,12,17,05,21.80
2014,09,12,17,06,21.80
2014,09,12,17,07,21.80
2014,09,12,17,08,21.90
2014,09,12,17,09,21.90
2014,09,12,17,10,21.90
2014,09,12,17,11,21.90
2014,09,12,17,12,21.90
2014,09,12,17,13,21.90
2014,09,12,17,14,22.00
2014,09,12,17,15,22.00
2014,09,12,17,16,22.10
2014,09,12,17,17,22.10
2014,09,12,17,18,22.20
2014,09,12,17,19,22.20
2014,09,12,17,20,22.30
2014,09,12,17,21,22.30
2014,09,12,17,22,22.30
2014,09,12,17,23,22.30
2014,09,12,17,24,22.20
2014,09,12,17,25,22.20
2014,09,12,17,26,22.10
2014,09,12,17,27,22.10
2014,09,12,17,28,22.10
2014,09,12,17,29,22.20
2014,09,12,17,30,22.20
2014,09,12,17,31,22.20
2014,09,12,17,32,22.30
2014,09,12,17,33,22.20
2014,09,12,17,34,22.20
2014,09,12,17,35,22.10
2014,09,12,17,36,22.10
2014,09,12,17,37,22.00
2014,09,12,17,38,22.00
2014,09,12,17,39,22.00
2014,09,12,17,40,22.00
2014,09,12,17,41,21.90
2014,09,12,17,42,21.90
2014,09,12,17,43,21.90
2014,09,12,17,44,21.80
2014,09,12,17,45,21.80